Date String (YYYY-MM-DD hh:mm:ss) UTC,Instrument flags,absolute air pressure of the measurement (hPa),sample flow rate (lpm),inlet stack bypass flow (lpm),air temperature of the measurement (°C),ambient temperature measured by the external sensor (°C),aerosol sample conditioner tube jacket temperature (°C),OPC LED temperature (°C),internal box temperature (°C),relative humidity of the measurement (%),span deviation,mass concentration of particles derived from Lorenz-Mie calculation of OPC scattering (μg/m³),mass concentration of particles derived from Lorenz-Mie calculation of OPC scattering (μg/m³),mass concentration of particles derived from Lorenz-Mie calculation of OPC scattering (μg/m³)
DateTimeUTC,F1_M11,P_M11,Q1_M11,Q2_M11,T1_M11,T2_M11,T3_M11,T4_M11,T5_M11,U1_M11,ZSPAN_M11,X2_M11,X0_M11,X1_M11
2024-05-10 12:00:00,SystemResetWarning,0836.7,4.99,000.00,026.3,025.7,000.0,034.6,028.1,020.5,0000.0,0003.30,0007.00,0002.95
2024-05-10 12:01:00,SystemResetWarning,0836.8,5.02,000.00,026.4,025.7,000.0,034.6,028.1,020.4,0000.0,0003.31,0007.99,0002.95
2024-05-10 12:02:00,SystemResetWarning,0836.8,4.99,000.00,026.4,025.7,000.0,034.6,028.1,020.4,0000.0,0003.32,0007.96,0002.95
2024-05-10 12:03:00,SystemResetWarning,0836.8,4.99,000.00,026.4,025.7,000.0,034.6,028.1,020.5,0000.0,0003.32,0008.26,0002.96
2024-05-10 12:04:00,SystemResetWarning,0836.8,5.00,000.00,026.4,025.7,000.0,034.7,028.1,020.7,0000.0,0003.33,0008.79,0002.98
2024-05-10 12:05:00,SystemResetWarning,0836.8,5.01,000.00,026.4,025.7,000.0,034.7,028.1,020.6,0000.0,0003.35,0009.13,0002.99
2024-05-10 12:06:00,SystemResetWarning,0836.9,5.01,000.00,026.4,025.7,000.0,034.7,028.1,020.8,0000.0,0003.37,0009.49,0003.00
2024-05-10 12:07:00,SystemResetWarning,0836.9,5.00,000.00,026.4,025.7,000.0,034.7,028.1,021.2,0000.0,0003.36,0009.41,0003.00
2024-05-10 12:08:00,SystemResetWarning,0836.9,5.00,000.00,026.4,025.7,000.0,034.7,028.1,021.1,0000.0,0003.37,0009.35,0003.00
2024-05-10 12:09:00,SystemResetWarning,0837.0,5.01,000.00,026.4,025.8,000.0,034.7,028.1,020.9,0000.0,0003.36,0008.77,0003.00
2024-05-10 12:10:00,SystemResetWarning,0837.0,5.00,000.00,026.4,025.8,000.0,034.7,028.1,020.6,0000.0,0003.35,0008.74,0002.98
2024-05-10 12:11:00,SystemResetWarning,0837.0,5.00,000.00,026.4,025.8,000.0,034.7,028.1,020.9,0000.0,0003.35,0008.77,0002.97
2024-05-10 12:12:00,SystemResetWarning,0837.0,5.00,000.00,026.4,025.8,000.0,034.7,028.1,021.2,0000.0,0003.33,0007.90,0002.96
2024-05-10 12:13:00,SystemResetWarning,0837.0,4.99,000.00,026.4,025.8,000.0,034.7,028.1,021.2,0000.0,0003.30,0007.85,0002.94
2024-05-10 12:14:00,SystemResetWarning,0837.0,5.00,000.00,026.4,025.8,000.0,034.7,028.1,021.6,0000.0,0003.27,0007.48,0002.94
2024-05-10 12:15:00,SystemResetWarning,0837.0,5.00,000.00,026.4,025.8,000.0,034.7,028.1,021.4,0000.0,0003.27,0006.63,0002.93
2024-05-10 12:16:00,SystemResetWarning,0837.0,5.00,000.00,026.4,025.8,000.0,034.7,028.2,021.4,0000.0,0003.26,0006.42,0002.90
2024-05-10 12:17:00,SystemResetWarning,0837.0,4.99,000.00,026.4,025.8,000.0,034.7,028.2,021.2,0000.0,0003.25,0005.29,0002.89
2024-05-10 12:18:00,SystemResetWarning,0836.9,4.99,000.00,026.4,025.8,000.0,034.7,028.2,020.8,0000.0,0003.23,0005.44,0002.86
2024-05-10 12:19:00,SystemResetWarning,0836.9,5.00,000.00,026.4,025.8,000.0,034.7,028.1,020.6,0000.0,0003.24,0005.78,0002.84
2024-05-10 12:20:00,SystemResetWarning,0837.0,5.01,000.00,026.4,025.8,000.0,034.7,028.2,020.5,0000.0,0003.22,0005.66,0002.83
2024-05-10 12:21:00,SystemResetWarning,0837.0,5.01,000.00,026.4,025.8,000.0,034.7,028.1,020.6,0000.0,0003.24,0005.73,0002.84
2024-05-10 12:22:00,SystemResetWarning,0837.0,5.00,000.00,026.4,025.8,000.0,034.7,028.1,020.5,0000.0,0003.23,0005.67,0002.84
2024-05-10 12:23:00,SystemResetWarning,0837.0,5.00,000.00,026.4,025.8,000.0,034.8,028.2,020.7,0000.0,0003.24,0005.59,0002.85
2024-05-10 12:24:00,SystemResetWarning,0837.0,4.99,000.00,026.4,025.8,000.0,034.8,028.2,020.8,0000.0,0003.27,0005.74,0002.85
2024-05-10 12:25:00,SystemResetWarning,0837.0,5.00,000.00,026.4,025.8,000.0,034.8,028.2,021.1,0000.0,0003.28,0005.79,0002.85
2024-05-10 12:26:00,SystemResetWarning,0836.8,4.99,000.00,026.3,024.3,000.0,034.8,027.3,021.3,0000.0,0003.28,0005.88,0002.85
2024-05-10 12:27:00,SystemResetWarning,0836.8,5.01,000.00,025.8,022.4,000.0,034.8,026.3,022.1,0000.0,0003.26,0005.85,0002.85
2024-05-10 12:28:00,SystemResetWarning,0836.8,5.01,000.00,025.4,022.2,000.0,034.7,026.1,022.6,0000.0,0003.26,0005.83,0002.84
2024-05-10 12:29:00,SystemResetWarning,0836.8,4.99,000.00,025.3,022.6,000.0,034.5,026.3,022.8,0000.0,0003.26,0005.61,0002.85
2024-05-10 12:30:00,SystemResetWarning,0836.8,5.00,000.00,025.3,023.0,000.0,034.3,026.5,022.8,0000.0,0003.24,0004.67,0002.85
2024-05-10 12:31:00,SystemResetWarning,0836.9,5.00,000.00,025.3,023.3,000.0,034.2,026.7,022.9,0000.0,0003.25,0006.49,0002.84
2024-05-10 12:32:00,SystemResetWarning,0836.9,5.01,000.00,025.3,023.6,000.0,034.1,026.8,023.4,0000.0,0003.25,0007.32,0002.85
2024-05-10 12:33:00,SystemResetWarning,0836.9,4.99,000.00,025.3,023.9,000.0,034.0,026.9,023.1,0000.0,0003.30,0007.42,0002.87
2024-05-10 12:34:00,SystemResetWarning,0836.9,4.99,000.00,025.3,024.1,000.0,034.0,027.0,023.0,0000.0,0003.33,0007.54,0002.90
2024-05-10 12:35:00,SystemResetWarning,0836.8,5.00,000.00,025.4,024.3,000.0,034.0,027.0,022.5,0000.0,0003.34,0007.54,0002.93
2024-05-10 12:36:00,SystemResetWarning,0836.9,5.00,000.00,025.4,024.4,000.0,033.9,027.1,022.6,0000.0,0003.35,0007.55,0002.94
2024-05-10 12:37:00,SystemResetWarning,0836.8,5.01,000.00,025.4,024.5,000.0,033.9,027.1,022.9,0000.0,0003.34,0007.48,0002.96
2024-05-10 12:38:00,SystemResetWarning,0836.8,5.00,000.00,025.4,024.7,000.0,033.9,027.2,022.9,0000.0,0003.37,0007.48,0003.00
2024-05-10 12:39:00,SystemResetWarning,0836.8,5.00,000.00,025.5,024.7,000.0,033.9,027.2,022.6,0000.0,0003.39,0007.53,0003.02
2024-05-10 12:40:00,SystemResetWarning,0836.8,5.01,000.00,025.5,024.8,000.0,033.9,027.3,022.3,0000.0,0003.39,0007.49,0003.04
2024-05-10 12:41:00,SystemResetWarning,0836.8,5.01,000.00,025.5,024.9,000.0,033.9,027.3,022.4,0000.0,0003.41,0007.54,0003.07
2024-05-10 12:42:00,SystemResetWarning,0836.8,5.00,000.00,025.6,024.9,000.0,033.9,027.4,022.7,0000.0,0003.42,0006.06,0003.09
2024-05-10 12:43:00,SystemResetWarning,0836.8,5.00,000.00,025.6,025.0,000.0,033.9,027.4,022.7,0000.0,0003.41,0005.09,0003.11
2024-05-10 12:44:00,SystemResetWarning,0836.8,4.99,000.00,025.6,025.0,000.0,033.9,027.4,022.9,0000.0,0003.40,0005.01,0003.10
2024-05-10 12:45:00,SystemResetWarning,0836.8,5.00,000.00,025.6,025.1,000.0,033.9,027.4,022.0,0000.0,0003.36,0004.73,0003.10
2024-05-10 12:46:00,SystemResetWarning,0836.7,5.00,000.00,025.7,025.1,000.0,033.9,027.4,021.8,0000.0,0003.34,0004.63,0003.09
2024-05-10 12:47:00,SystemResetWarning,0836.8,5.00,000.00,025.7,025.1,000.0,033.9,027.5,022.3,0000.0,0003.33,0004.58,0003.09
2024-05-10 12:48:00,SystemResetWarning,0836.8,5.02,000.00,025.7,025.2,000.0,033.9,027.5,022.1,0000.0,0003.34,0004.57,0003.10
2024-05-10 12:49:00,SystemResetWarning,0836.8,5.00,000.00,025.7,025.2,000.0,034.0,027.5,021.5,0000.0,0003.34,0004.54,0003.10
2024-05-10 12:50:00,SystemResetWarning,0836.8,4.99,000.00,025.8,025.2,000.0,034.0,027.5,021.6,0000.0,0003.31,0004.40,0003.09
2024-05-10 12:51:00,SystemResetWarning,0836.8,4.99,000.00,025.8,025.2,000.0,034.0,027.6,021.7,0000.0,0003.32,0004.45,0003.09
2024-05-10 12:52:00,SystemResetWarning,0836.8,4.99,000.00,025.8,025.3,000.0,034.0,027.6,021.7,0000.0,0003.33,0004.62,0003.09
2024-05-10 12:53:00,SystemResetWarning,0836.9,5.01,000.00,025.8,025.3,000.0,034.0,027.6,021.7,0000.0,0003.31,0004.75,0003.08
2024-05-10 12:54:00,SystemResetWarning,0836.9,5.01,000.00,025.8,025.3,000.0,034.1,027.6,021.6,0000.0,0003.30,0004.70,0003.07
2024-05-10 12:55:00,SystemResetWarning,0837.0,5.00,000.00,025.9,025.3,000.0,034.1,027.6,021.7,0000.0,0003.28,0004.63,0003.06
2024-05-10 12:56:00,SystemResetWarning,0837.0,4.99,000.00,025.9,025.3,000.0,034.1,027.6,021.6,0000.0,0003.29,0004.69,0003.04
2024-05-10 12:57:00,SystemResetWarning,0836.9,5.00,000.00,025.9,025.4,000.0,034.1,027.7,022.5,0000.0,0003.28,0004.66,0003.04
2024-05-10 12:58:00,SystemResetWarning,0837.0,5.00,000.00,025.9,025.4,000.0,034.1,027.7,022.7,0000.0,0003.28,0004.65,0003.07
2024-05-10 12:59:00,SystemResetWarning,0836.9,4.99,000.00,025.9,025.4,000.0,034.1,027.7,022.4,0000.0,0003.31,0005.91,0003.07
